| |
Missouri Department of Transportation

Social Media Facebook Twitter Flickr Blog YouTube RSS

Current AWOS Information

 
AWOS Home - General Info for all Airports
Current AWOS for all Airports - Current METAR for all Airports
Glossary - Disclaimer - Other Links


LEBANON--FLOYD W JONES LEBANON--KLBO
 
Recent AWOS History
 
11/21/14     05:52 PM CST      23:52 GMT
Air Temperature 43°F (6°C ) 1st Cloud Layer Broken at 1,200 feet
Dew Point 35°F (2°C) 2nd Cloud Layer Broken at 2,700 feet
Barometric Pressure 30.18 in Hg. 3rd Cloud Layer Broken at 3,400 feet
Wind Speed 15 mph (13 knots) Density Altitude  
Peak Wind Gusts   Variable Wind Directions  
Wind Direction Quadrant(140°) Variable Visibility  
Visibility 10 statute miles  

Thunderstorm and Precipitation Identification: 
Thunderstorm Remarks: 

Current METAR Record: METAR KLBO 212355Z AUTO 15012KT 10SM BKN012 BKN027 BKN034 06/02 A3018 RMK AO2

 

 

 

About Us
How Do I...
Contact Us
Missouri Department of Transportation
Central Office
105 W. Capitol Avenue
Jefferson City, MO 65102
1-888-ASK-MODOT (275-6636)
1-866-831-6277 (Motor Carrier Services)
Drivers License Offices
horz_bar
| | |
Missouri State Government
© 2013 Missouri Department of Transportation. All Rights Reserved.   Privacy Policy.
 
 
 
 
RSS FeedYoutubeBlogFlickrTwitter Facebook